Date String (YYYY-MM-DD hh:mm:ss) UTC,Instrument flags,absolute air pressure of the measurement (hPa),sample flow rate (lpm),inlet stack bypass flow (lpm),air temperature of the measurement (°C),ambient temperature measured by the external sensor (°C),aerosol sample conditioner tube jacket temperature (°C),OPC LED temperature (°C),internal box temperature (°C),relative humidity of the measurement (%),span deviation,mass concentration of particles derived from Lorenz-Mie calculation of OPC scattering (μg/m³),mass concentration of particles derived from Lorenz-Mie calculation of OPC scattering (μg/m³),mass concentration of particles derived from Lorenz-Mie calculation of OPC scattering (μg/m³)
DateTimeUTC,F1_M11,P_M11,Q1_M11,Q2_M11,T1_M11,T2_M11,T3_M11,T4_M11,T5_M11,U1_M11,ZSPAN_M11,X2_M11,X0_M11,X1_M11
2023-06-21 07:00:00,SystemResetWarning,0830.4,5.00,000.00,029.9,028.4,000.0,038.3,031.4,20.2,0000.0,0005.95,0017.69,0004.33
2023-06-21 07:01:00,SystemResetWarning,0830.4,5.01,000.00,029.9,028.4,000.0,038.4,031.4,20.1,0000.0,0005.87,0016.31,0004.32
2023-06-21 07:02:00,SystemResetWarning,0830.4,5.01,000.00,029.9,028.4,000.0,038.4,031.4,20.1,0000.0,0005.84,0015.43,0004.31
2023-06-21 07:03:00,SystemResetWarning,0830.4,5.00,000.00,029.9,028.5,000.0,038.4,031.4,19.8,0000.0,0005.76,0015.39,0004.30
2023-06-21 07:04:00,SystemResetWarning,0830.4,4.99,000.00,030.0,028.5,000.0,038.4,031.5,19.8,0000.0,0005.72,0016.22,0004.29
2023-06-21 07:05:00,SystemResetWarning,0830.3,4.99,000.00,030.0,028.5,000.0,038.4,031.5,19.6,0000.0,0005.70,0015.44,0004.28
2023-06-21 07:06:00,SystemResetWarning,0830.4,5.00,000.00,030.0,028.5,000.0,038.5,031.5,19.6,0000.0,0005.77,0015.86,0004.28
2023-06-21 07:07:00,SystemResetWarning,0830.3,5.00,000.00,030.0,028.5,000.0,038.5,031.5,19.6,0000.0,0005.75,0014.76,0004.28
2023-06-21 07:08:00,SystemResetWarning,0830.3,4.99,000.00,030.0,028.0,000.0,038.5,031.5,19.7,0000.0,0005.74,0014.34,0004.28
2023-06-21 07:09:00,SystemResetWarning,0830.3,5.00,000.00,030.0,025.7,000.0,038.4,031.4,19.6,0000.0,0005.73,0014.17,0004.27
2023-06-21 07:10:00,SystemResetWarning,0830.3,5.01,000.00,030.0,024.8,000.0,038.4,031.3,19.7,0000.0,0005.70,0014.49,0004.25
2023-06-21 07:11:00,SystemResetWarning,0830.3,5.00,000.00,029.8,025.0,000.0,038.3,031.0,19.9,0000.0,0005.65,0014.51,0004.25
2023-06-21 07:12:00,SystemResetWarning,0830.3,4.99,000.00,029.7,025.4,000.0,038.3,030.9,20.0,0000.0,0005.66,0014.34,0004.25
2023-06-21 07:13:00,SystemResetWarning,0830.3,5.00,000.00,029.7,025.8,000.0,038.3,030.9,20.2,0000.0,0005.67,0015.72,0004.26
2023-06-21 07:14:00,SystemResetWarning,0830.3,5.00,000.00,029.7,026.2,000.0,038.3,030.9,20.3,0000.0,0005.67,0017.32,0004.25
2023-06-21 07:15:00,SystemResetWarning,0830.3,4.99,000.00,029.6,026.6,000.0,038.3,030.9,20.2,0000.0,0005.69,0016.10,0004.25
2023-06-21 07:16:00,SystemResetWarning,0830.3,5.00,000.00,029.6,026.9,000.0,038.3,030.9,20.3,0000.0,0005.74,0016.35,0004.24
2023-06-21 07:17:00,SystemResetWarning,0830.3,5.00,000.00,029.6,027.2,000.0,038.3,031.0,20.1,0000.0,0005.73,0016.52,0004.24
2023-06-21 07:18:00,SystemResetWarning,0830.3,5.00,000.00,029.6,027.4,000.0,038.3,031.0,20.2,0000.0,0005.70,0016.31,0004.24
2023-06-21 07:19:00,SystemResetWarning,0830.3,5.00,000.00,029.6,027.5,000.0,038.3,031.0,19.8,0000.0,0005.63,0016.34,0004.23
2023-06-21 07:20:00,SystemResetWarning,0830.3,5.00,000.00,029.6,027.7,000.0,038.3,031.0,19.9,0000.0,0005.58,0016.26,0004.22
2023-06-21 07:21:00,SystemResetWarning,0830.3,5.01,000.00,029.7,027.8,000.0,038.3,031.1,19.8,0000.0,0005.57,0016.10,0004.22
2023-06-21 07:22:00,SystemResetWarning,0830.3,5.00,000.00,029.7,027.9,000.0,038.3,031.1,19.8,0000.0,0005.59,0015.72,0004.22
2023-06-21 07:23:00,SystemResetWarning,0830.3,4.99,000.00,029.7,027.9,000.0,038.3,031.1,19.7,0000.0,0005.61,0016.37,0004.22
2023-06-21 07:24:00,SystemResetWarning,0830.3,5.02,000.00,029.7,028.0,000.0,038.3,031.1,19.7,0000.0,0005.61,0015.64,0004.20
2023-06-21 07:25:00,SystemResetWarning,0830.3,5.00,000.00,029.7,028.1,000.0,038.3,031.2,19.8,0000.0,0005.58,0013.46,0004.20
2023-06-21 07:26:00,SystemResetWarning,0830.3,4.99,000.00,029.7,028.1,000.0,038.3,031.2,19.8,0000.0,0005.57,0013.18,0004.20
2023-06-21 07:27:00,SystemResetWarning,0830.3,4.99,000.00,029.8,028.2,000.0,038.3,031.2,19.8,0000.0,0005.54,0013.12,0004.20
2023-06-21 07:28:00,SystemResetWarning,0830.3,4.99,000.00,029.8,028.2,000.0,038.3,031.3,19.8,0000.0,0005.56,0012.70,0004.21
2023-06-21 07:29:00,SystemResetWarning,0830.3,5.00,000.00,029.8,028.2,000.0,038.3,031.3,19.7,0000.0,0005.56,0013.04,0004.21
2023-06-21 07:30:00,SystemResetWarning,0830.3,5.00,000.00,029.8,028.3,000.0,038.3,031.4,19.6,0000.0,0005.56,0012.97,0004.22
2023-06-21 07:31:00,SystemResetWarning,0830.3,5.01,000.00,029.8,028.3,000.0,038.3,031.4,19.7,0000.0,0005.60,0013.03,0004.24
2023-06-21 07:32:00,SystemResetWarning,0830.3,5.00,000.00,029.9,028.3,000.0,038.4,031.4,19.4,0000.0,0005.63,0012.98,0004.24
2023-06-21 07:33:00,SystemResetWarning,0830.4,5.00,000.00,029.9,028.4,000.0,038.4,031.4,19.1,0000.0,0005.67,0013.71,0004.26
2023-06-21 07:34:00,SystemResetWarning,0830.4,5.00,000.00,029.9,028.4,000.0,038.4,031.4,18.8,0000.0,0005.72,0013.70,0004.27
2023-06-21 07:35:00,SystemResetWarning,0830.5,5.00,000.00,029.9,028.4,000.0,038.4,031.4,18.8,0000.0,0005.69,0014.75,0004.27
2023-06-21 07:36:00,SystemResetWarning,0830.5,5.00,000.00,030.0,028.4,000.0,038.4,031.5,18.8,0000.0,0005.68,0014.81,0004.26
2023-06-21 07:37:00,SystemResetWarning,0830.4,5.00,000.00,030.0,028.5,000.0,038.4,031.5,18.7,0000.0,0005.65,0014.91,0004.25
2023-06-21 07:38:00,SystemResetWarning,0830.4,5.00,000.00,030.0,028.5,000.0,038.4,031.5,18.7,0000.0,0005.64,0014.82,0004.24
2023-06-21 07:39:00,SystemResetWarning,0830.4,5.00,000.00,030.0,028.5,000.0,038.5,031.5,18.7,0000.0,0005.58,0015.36,0004.23
2023-06-21 07:40:00,SystemResetWarning,0830.4,5.00,000.00,030.0,028.5,000.0,038.5,031.5,18.7,0000.0,0005.54,0015.23,0004.21
2023-06-21 07:41:00,SystemResetWarning,0830.4,4.99,000.00,030.0,028.6,000.0,038.5,031.5,18.8,0000.0,0005.56,0015.33,0004.20
2023-06-21 07:42:00,SystemResetWarning,0830.4,4.99,000.00,030.1,028.6,000.0,038.5,031.6,18.7,0000.0,0005.55,0015.52,0004.17
2023-06-21 07:43:00,SystemResetWarning,0830.4,4.99,000.00,030.1,028.6,000.0,038.5,031.6,18.5,0000.0,0005.54,0015.70,0004.15
2023-06-21 07:44:00,SystemResetWarning,0830.4,5.01,000.00,030.1,028.6,000.0,038.6,031.6,18.3,0000.0,0005.52,0015.09,0004.13
2023-06-21 07:45:00,SystemResetWarning,0830.4,5.01,000.00,030.1,028.6,000.0,038.6,031.6,18.3,0000.0,0005.47,0015.10,0004.12
2023-06-21 07:46:00,SystemResetWarning,0830.4,5.00,000.00,030.1,028.7,000.0,038.6,031.6,18.2,0000.0,0005.42,0014.18,0004.12
2023-06-21 07:47:00,SystemResetWarning,0830.4,5.00,000.00,030.1,028.7,000.0,038.6,031.7,18.1,0000.0,0005.46,0014.26,0004.13
2023-06-21 07:48:00,SystemResetWarning,0830.4,4.99,000.00,030.2,028.7,000.0,038.6,031.7,18.4,0000.0,0005.50,0015.15,0004.12
2023-06-21 07:49:00,SystemResetWarning,0830.4,4.99,000.00,030.2,028.2,000.0,038.6,031.7,18.8,0000.0,0005.47,0016.14,0004.11
2023-06-21 07:50:00,SystemResetWarning,0830.4,5.00,000.00,030.2,025.8,000.0,038.6,031.6,18.7,0000.0,0005.44,0015.59,0004.10
2023-06-21 07:51:00,SystemResetWarning,0830.4,5.02,000.00,030.1,024.8,000.0,038.5,031.5,18.7,0000.0,0005.51,0015.62,0004.11
2023-06-21 07:52:00,SystemResetWarning,0830.4,4.99,000.00,030.0,025.0,000.0,038.5,031.1,18.6,0000.0,0005.46,0015.41,0004.10
2023-06-21 07:53:00,SystemResetWarning,0830.6,4.99,000.00,029.9,025.4,000.0,038.5,031.0,18.6,0000.0,0005.44,0015.45,0004.11
2023-06-21 07:54:00,SystemResetWarning,0830.7,5.00,000.00,029.8,025.8,000.0,038.5,031.0,18.6,0000.0,0005.47,0015.61,0004.11
2023-06-21 07:55:00,SystemResetWarning,0830.7,5.00,000.00,029.8,026.3,000.0,038.5,031.0,18.4,0000.0,0005.45,0015.98,0004.11
2023-06-21 07:56:00,SystemResetWarning,0830.5,5.01,000.00,029.8,026.6,000.0,038.4,031.1,18.4,0000.0,0005.44,0015.90,0004.08
2023-06-21 07:57:00,SystemResetWarning,0830.6,4.99,000.00,029.8,027.0,000.0,038.4,031.1,18.5,0000.0,0005.50,0015.97,0004.08
2023-06-21 07:58:00,SystemResetWarning,0830.6,4.99,000.00,029.8,027.2,000.0,038.4,031.1,18.5,0000.0,0005.47,0016.73,0004.07
2023-06-21 07:59:00,SystemResetWarning,0830.6,5.00,000.00,029.8,027.4,000.0,038.4,031.1,18.7,0000.0,0005.38,0015.88,0004.05
